Location: Lewisville
(33.0462°N, 96.9942°W)
Time: 06:13:33
(UTC-06:00)

LightSail 2 - Pass Details

Date: 01 January 2020
Orbit: 701 x 721 km, 24.0° (Epoch: 16 February)

Event Time Altitude Azimuth Distance (km) Brightness Sun altitude
Exits shadow 05:53:12 20° 225° (SW) 1,596 6.7 -19.9°
Maximum altitude 05:55:38 29° 182° (S) 1,262 6.5 -19.4°
Drops below altitude 10° 05:59:59 10° 123° (ESE) 2,149 8.7 -18.6°
Sets 06:02:40 0° 112° (ESE) 3,065 10.1 -18.0°
